AO-07 1 07530U 74089B 18046.48638205 -.00000045 00000-0 -58304-5 0 9994 2 07530 101.6710 015.7137 0011867 209.8893 260.2826 12.53631081979112 UO-11 1 14781U 84021B 18046.81969379 .00000099 00000-0 18438-4 0 9993 2 14781 97.6658 88.1056 0009849 117.2525 242.9694 14.82980449826455 LO-19 1 20442U 90005G 18046.43103216 -.00000004 00000-0 14736-4 0 9995 2 20442 098.6001 345.7443 0012336 145.0978 215.1018 14.32886689466398 HUBBLE 1 20580U 90037B 18046.48527760 .00000525 00000-0 21251-4 0 9999 2 20580 028.4685 199.5908 0002539 272.1508 147.8148 15.08979392326989 MET-2/21 1 22782U 93055A 18046.54760581 .00000046 00000-0 28084-4 0 9994 2 22782 082.5501 190.4545 0023476 107.7880 323.1604 13.83807246235084 AO-27 1 22825U 93061C 18046.47572094 -.00000007 00000-0 15268-4 0 9999 2 22825 098.8479 020.4826 0008194 349.1476 010.9528 14.30021793271908 IO-26 1 22826U 93061D 18046.52069035 -.00000003 00000-0 16638-4 0 9990 2 22826 098.8420 020.5812 0008529 338.1836 021.8982 14.30352674272115 FO-29 1 24278U 96046B 18046.59134169 -.00000004 00000-0 29751-4 0 9998 2 24278 098.5287 262.0200 0351281 066.4639 297.2993 13.53081311061543 NOAA-15 1 25338U 98030A 18046.58090194 .00000012 00000-0 23711-4 0 9997 2 25338 098.7761 062.8899 0009947 215.8259 144.2254 14.25838872027687 GO-32 1 25397U 98043D 18046.44347109 -.00000022 00000-0 94801-5 0 9993 2 25397 098.6384 348.9755 0001936 047.6680 312.4663 14.23639683018185 ISS 1 25544U 98067A 18046.55817189 .00001353 00000-0 27714-4 0 9990 2 25544 051.6417 265.0608 0003589 103.0964 344.3049 15.54096060099608 NO-44 1 26931U 01043C 18046.49057437 -.00000050 00000-0 12771-4 0 9995 2 26931 067.0509 183.4225 0005754 281.6240 078.4215 14.30493980855072 SO-50 1 27607U 02058C 18046.75040242 .00000023 00000-0 24005-4 0 9990 2 27607 64.5550 101.2139 0050698 357.6037 2.4815 14.75419743815048 CO-55 1 27844U 03031E 18046.59078247 .00000056 00000-0 45200-4 0 9999 2 27844 098.6889 057.0285 0009875 009.9869 350.1503 14.22094485758873 CO-57 1 27848U 03031J 18046.58674784 .00000042 00000-0 39057-4 0 9998 2 27848 098.6978 057.3803 0009964 019.8997 340.2568 14.21701106758758 RS-22 1 27939U 03042A 18046.88670618 .00000127 00000-0 31325-4 0 9990 2 27939 97.9697 189.2972 0013318 167.7603 307.2733 14.66657397769037 NOAA-18 1 28654U 05018A 18046.61241397 -.00000004 00000-0 22873-4 0 9992 2 28654 099.1605 079.5010 0015279 108.4582 251.8251 14.12366722656523 CO-58 1 28895U 05043F 18046.37459034 .00000149 00000-0 37359-4 0 9993 2 28895 097.8899 202.8913 0018186 094.7641 265.5639 14.63508677655823 Falconsat-3 1 30776U 07006E 18046.19558371 .00003167 00000-0 95735-4 0 9994 2 30776 035.4370 323.0142 0003211 344.4479 015.6148 15.33910765605572 CO-65 1 32785U 08021C 18046.47501894 .00000248 00000-0 32519-4 0 9991 2 32785 097.5528 064.4314 0014635 083.2505 277.0377 14.88061249531002 AAUSAT2 1 32788U 08021F 18046.61711944 .00000689 00000-0 69320-4 0 9998 2 32788 097.5345 078.1142 0012765 042.2554 317.9648 14.94219044531925 DO-64 1 32789U 08021G 18046.38185304 .00001541 00000-0 11051-3 0 9993 2 32789 097.5284 104.2002 0012243 000.2028 359.9202 15.05744604533354 CO-66 1 32791U 08021J 18046.62686356 .00000329 00000-0 39100-4 0 9995 2 32791 97.5448 69.6440 0014795 66.4853 293.7919 14.90467139531405 RS-30 1 32953U 08025A 18046.82982074 .00000044 00000-0 24073-3 0 9993 2 32953 82.5000 88.1584 0020353 113.9305 246.3910 12.43081638441693 PRISM 1 33493U 09002B 18046.84943930 .00000400 00000-0 41197-4 0 9992 2 33493 98.1429 304.2097 0015650 3.0712 357.0603 14.96069826492204 NOAA-19 1 33591U 09005A 18046.56655506 .00000101 00000-0 80341-4 0 9994 2 33591 099.1278 022.2713 0013285 311.5037 048.4993 14.12254237465008 TISAT-1 1 36799U 10035E 18046.35819709 .00000449 00000-0 51873-4 0 9999 2 36799 098.0872 179.4975 0011209 245.4354 114.5695 14.90693379411808 JUGNU 1 37839U 11058B 18046.36586142 .00000325 00000-0 31362-4 0 9998 2 37839 019.9623 055.9452 0018877 344.7852 146.3586 14.12609346328019 SRMSAT 1 37841U 11058D 18046.41764010 .00000301 00000-0 20208-4 0 9990 2 37841 019.9723 102.3214 0011646 232.7372 233.4114 14.10598205327570 AO-71 1 37854U 11061E 18046.57567481 .00001498 00000-0 85934-4 0 9993 2 37854 101.7124 049.2347 0164785 074.0363 287.8934 15.05078544343086 HRBE 1 37855U 11061F 18046.48669780 .00001760 00000-0 97765-4 0 9996 2 37855 101.7248 046.7378 0177705 082.3008 279.8342 15.04049448342885 ALMASAT-1 1 38078U 12006B 18046.57975726 .00013175 38411-5 12833-3 0 9991 2 38078 069.4358 191.5801 0266728 288.8542 147.8242 15.34283503321969 HORYU-2 1 38340U 12025D 18046.48584500 .00000221 00000-0 40615-4 0 9996 2 38340 098.3740 063.9796 0010576 234.6319 125.3901 14.75498771298753 RS-40 1 38735U 12041C 18046.61365201 .00000006 00000-0 -30177-4 0 9996 2 38735 082.4786 172.4155 0016795 215.6423 144.3536 12.42576667251908 BEESAT-3 1 39134U 13015E 18046.66424101 .00001604 00000-0 85826-4 0 9997 2 39134 64.8639 159.9100 0024934 227.1045 132.7989 15.18807615266449 BEESAT-2 1 39136U 13015G 18046.74675424 .00001497 00000-0 87322-4 0 9997 2 39136 64.8694 173.9068 0030116 249.3365 110.4530 15.15868260266187 ZACUBE-1 1 39417U 13066B 18046.08481351 .00000242 00000-0 37053-4 0 9999 2 39417 097.6015 081.1559 0058907 193.6971 166.2647 14.80874730228723 TRITON-1 1 39427U 13066M 18046.60265010 .00000160 00000-0 33837-4 0 9995 2 39427 097.6377 050.6191 0112773 289.1871 069.7158 14.67610762226551 GOMX-1 1 39430U 13066Q 18046.50779076 .00000320 00000-0 67132-4 0 9993 2 39430 097.6851 032.2359 0151617 355.2355 004.7393 14.59023344225224 LO-74 1 39440U 13066AA 18046.62779341 .00000185 00000-0 33076-4 0 9991 2 39440 97.6093 69.0398 0079510 229.5852 129.8403 14.75611855227995 AO-73 1 39444U 13066AE 18046.61703381 .00000273 00000-0 40149-4 0 9992 2 39444 097.6027 083.0308 0058239 187.7746 172.2571 14.81639666227068 SPROUT 1 39770U 14029E 18046.84561977 .00000349 00000-0 45482-4 0 9991 2 39770 97.8729 148.9615 0007625 242.9650 117.0799 14.86663943202336 DUCHIFAT-1 1 40021U 14033M 18046.72972536 .00000471 00000-0 54467-4 0 9990 2 40021 97.9179 325.2310 0012045 214.3227 145.7214 14.90196990198864 NANOSATCBR1 1 40024U 14033Q 18046.77849551 .00000439 00000-0 52053-4 0 9991 2 40024 97.9124 323.7554 0011315 215.8234 144.2225 14.89476151198801 EO-79 1 40025U 14033R 18046.75730197 .00000310 00000-0 39276-4 0 9995 2 40025 97.9091 322.3883 0011477 219.9787 140.0585 14.88635797198728 DTUSAT-2 1 40030U 14033W 18046.28713841 .00000297 00000-0 38264-4 0 9996 2 40030 097.9046 320.7654 0010981 215.7295 144.3187 14.88249013198096 EO-80 1 40032U 14033Y 18046.74330763 .00000284 00000-0 36866-4 0 9999 2 40032 97.9052 321.2243 0010967 214.6501 145.4002 14.88184941198666 ANTELSAT 1 40034U 14033AA 18046.61567916 .00000218 00000-0 40185-4 0 9995 2 40034 097.8290 287.5674 0057794 228.8372 130.7843 14.73861818196246 VELOX-1 1 40057U 14034E 18046.80521018 .00000240 00000-0 41436-4 0 9990 2 40057 98.1933 155.8440 0010959 6.0321 354.1019 14.77342416195720 DAURIA DX 1 1 40071U 14037C 18046.88583861 .00000095 00000-0 19680-4 0 9995 2 40071 98.3562 172.9761 0008555 1.0782 359.0450 14.81121654195049 UKUBE-1 1 40074U 14037F 18046.83262785 .00000277 00000-0 40622-4 0 9994 2 40074 98.3678 178.1049 0004467 5.4161 354.7097 14.83717870195305 HODOYOSHI-1 1 40299U 14070B 18046.83352119 .00000483 00000-0 23696-4 0 9992 2 40299 97.3854 130.7251 0012216 325.0529 155.4039 15.22727389182014 CHUBUSAT-1 1 40300U 14070C 18046.82042316 .00000500 00000-0 25320-4 0 9995 2 40300 97.3752 127.0689 0019436 333.4358 144.5662 15.21382134181825 QSAT-EOS 1 40301U 14070D 18046.83038152 .00001256 00000-0 53888-4 0 9999 2 40301 97.3693 127.9032 0025656 323.7114 131.9492 15.24324318181930 FIREBIRD FU3 1 40377U 15003B 18046.62095163 .00002389 00000-0 10237-3 0 9999 2 40377 099.1022 284.2139 0131553 274.9111 083.7109 15.16707927167881 FIREBIRD FU4 1 40378U 15003C 18046.87450957 .00002326 00000-0 99674-4 0 9997 2 40378 99.1027 284.5697 0131799 273.9614 84.6557 15.16721948167930 GRIFEX 1 40379U 15003D 18046.88095348 .00001779 00000-0 82338-4 0 9998 2 40379 99.1063 281.2948 0138478 284.8504 73.7419 15.13958608167741 NO-84 1 40654U 15025D 18046.50704174 .00010146 00000-0 17112-3 0 02236 2 40654 054.9907 225.1343 0166498 159.3380 201.4548 15.38392753037109 NO-83 1 40655U 15025E 18046.44213222 .00024486 00000-0 29173-3 0 02556 2 40655 054.9761 181.4460 0121514 184.6463 175.3493 15.52477259037340 DEORBITSAIL 1 40719U 15032E 18046.80119311 .00000440 00000-0 70694-4 0 9993 2 40719 97.9587 302.2042 0017829 79.3461 280.9755 14.76330387140269 NUDT-PHONESAT 1 40900U 15049B 18046.73341152 .00002260 00000-0 10543-3 0 9993 2 40900 97.4429 56.4221 0015349 94.1102 266.1888 15.20781148133451 XW-2A 1 40903U 15049E 18046.81934944 .00001970 00000-0 51348-4 0 9998 2 40903 97.3988 80.4044 0016081 106.4635 253.8379 15.40000840135124 XW-2C 1 40906U 15049H 18046.86374295 .00000736 00000-0 42781-4 0 9993 2 40906 97.4590 52.6003 0016785 90.5363 269.7792 15.15014362133124 XW-2D 1 40907U 15049J 18046.82777129 .00000798 00000-0 45966-4 0 9999 2 40907 97.4562 52.2781 0016152 88.8013 271.5069 15.15152543133125 LILACSAT-2 1 40908U 15049K 18046.82313321 .00000451 00000-0 28796-4 0 9998 2 40908 97.4670 51.7850 0017768 89.3313 270.9954 15.13406097133018 XW-2F 1 40910U 15049M 18046.80244840 .00001203 00000-0 65445-4 0 9996 2 40910 97.4571 53.3502 0016899 85.5957 274.7207 15.16258182133060 XW-2B 1 40911U 15049N 18046.84097629 .00000781 00000-0 45089-4 0 9994 2 40911 97.4600 52.7810 0016058 89.2436 271.0636 15.15101492133021 DCBB 1 40912U 15049P 18046.52950425 .00000928 00000-0 48245-4 0 9992 2 40912 097.4507 055.5979 0017323 075.7551 080.6778 15.18440364133207 TW-1C 1 40926U 15051B 18046.87546531 .00006189 00000-0 12401-3 0 9996 2 40926 97.1999 89.8469 0010912 12.4335 74.6003 15.47031959134543 TW-1A 1 40928U 15051D 18046.82773676 .00002562 00000-0 70600-4 0 9992 2 40928 97.2008 83.1734 0013894 45.0518 40.2776 15.37957667134128 IO-86 1 40931U 15052B 18046.20741897 .00000607 00000-0 -45790-5 0 9991 2 40931 5.9993 299.8917 0013052 80.4241 279.7361 14.76564136128941 LQSat 1 40958U 15057A 18046.84511724 .00000004 00000-0 84033-5 0 9992 2 40958 97.9531 122.5880 0018512 11.1597 349.0010 14.73015394126989 AO-85 1 40967U 15058D 18046.41842065 .00000023 00000-0 21381-4 0 02384 2 40967 064.7754 200.8970 0194053 352.2234 007.5878 14.75638025035688 ATHENOXAT-1 1 41168U 15077C 18046.48831023 .00001946 00000-0 70572-4 0 9993 2 41168 014.9871 190.8099 0012058 150.3462 258.8457 15.12450157119927 ChubuSat-2 1 41338U 16012B 18046.26720842 .00000420 00000-0 26182-4 0 9998 2 41338 031.0046 008.2271 0013863 305.6072 054.3271 14.99919089109516 ChubuSat-3 1 41339U 16012C 18046.29636541 .00000350 00000-0 20545-4 0 9993 2 41339 31.0107 6.8120 0013705 312.6859 47.2608 15.00110670109504 Horyu-4 1 41340U 16012D 18046.22088766 .00000647 00000-0 42878-4 0 9990 2 41340 31.0065 2.9990 0014047 323.2667 36.7005 15.00883983109559 OUFTI-1 1 41458U 16025C 18046.85760775 .00000453 00000-0 28317-4 0 9997 2 41458 98.1514 103.1584 0171017 193.8243 165.8237 15.04236788 99195 e-st@r-II 1 41459U 16025D 18046.71103096 .00001000 00000-0 56950-4 0 9993 2 41459 98.1508 102.8888 0171707 195.0782 164.5289 15.03995439 99164 AAUSAT4 1 41460U 16025E 18046.73261561 .00001335 00000-0 73708-4 0 9990 2 41460 98.1478 103.2376 0163839 191.5736 168.1692 15.05282695 99215 LO-87 1 41557U 16033B 18046.76688728 .00001608 00000-0 61542-4 0 9993 2 41557 97.4439 131.1882 0012827 221.9320 138.0938 15.27992222 95617 NuSat2 1 41558U 16033C 18046.76132129 .00001580 00000-0 60852-4 0 9995 2 41558 97.4466 131.2630 0012303 220.3574 139.6754 15.27823729 95600 Lapan A3 1 41603U 16040E 18046.84973574 .00000079 00000-0 69230-5 0 9992 2 41603 97.4290 110.4721 0012292 310.5274 177.7261 15.19509704 91654 Swayam 1 41607U 16040J 18046.36454622 .00001690 00000-0 77384-4 0 9999 2 41607 097.4294 110.9791 0012569 309.8740 050.1390 15.21829084091577 Pratham 1 41783U 16059A 18046.38976907 .00000065 00000-0 21918-4 0 9998 2 41783 098.1346 109.8188 0034836 117.2513 243.2244 14.62900226074155 AlSat 1N 1 41789U 16059G 18046.79103727 .00000064 00000-0 21321-4 0 9998 2 41789 98.1347 111.1925 0029843 108.4817 251.9628 14.64126600 74259 ScatSat 1 41790U 16059H 18046.72776015 .00000021 00000-0 16439-4 0 9996 2 41790 98.2776 96.6125 0019556 103.4073 256.9303 14.50860631 73579 TY-1 1 41844U 16066D 18046.79388416 .00001168 00000-0 52687-4 0 9993 2 41844 97.4059 55.3985 0017652 101.1389 354.9889 15.22869622 70406 CAS-2T 1 41845U 16066E 18046.77705974 .00001402 00000-0 20433-3 0 9998 2 41845 98.7580 79.0740 0318966 226.7919 130.6228 14.48651507 66495 Pegasus-1 1 41846U 16066F 18046.57072914 .00000187 00000-0 40009-4 0 9999 2 41846 098.7662 072.4640 0367622 247.7478 108.4340 14.37258131066435 STARS-C 1 41895U 98067KR 18046.70166224 .00352324 64074-4 65147-3 0 9994 2 41895 51.6264 223.0951 0004965 267.3037 92.7405 16.00596455 66344 TO-89 1 41932U 98067KU 18046.55368530 .00020121 00000-0 17383-3 0 9994 2 41932 051.6358 244.2203 0004320 107.5785 252.5684 15.69200967061620 AOBA-V3LOX3 1 41935U 98067KX 18046.78276966 .00027604 00000-0 21941-3 0 9991 2 41935 51.6349 241.2223 0003590 114.1989 245.9384 15.71009580 61781 OSNSAT 1 41939U 98067KZ 18011.28402027 .11925055 12489-4 54124-3 0 9997 2 41939 051.6147 038.9582 0001091 231.1728 128.9202 16.43639489055773 EO-88 1 42017U 17008BX 18046.58097936 .00001645 00000-0 70788-4 0 9996 2 42017 097.4640 112.2971 0008146 089.0788 271.1383 15.24033231055546 HAVELSAT 1 42700U 98067LH 18046.80437119 .00017175 00000-0 17593-3 0 9994 2 42700 51.6357 252.6306 0005276 153.8212 206.3050 15.65082550 42973 SOMP2 1 42701U 98067LJ 18046.86235435 .00017521 00000-0 18355-3 0 9990 2 42701 51.6355 253.0171 0005277 153.2806 206.8461 15.64495971 42965 Columbia 1 42702U 98067LK 18046.75911454 .00268172 38616-4 73924-3 0 9992 2 42702 51.6249 237.1025 0005349 234.2457 125.8053 15.93417225 43091 PHOENIX 1 42706U 98067LP 18046.78846649 .00014819 00000-0 15741-3 0 9994 2 42706 51.6356 253.2777 0001646 121.6196 238.4960 15.64300856 42874 X-CubeSat 1 42707U 98067LQ 18046.81118851 .00019103 00000-0 19412-3 0 9996 2 42707 51.6336 252.6488 0001726 127.8115 232.3036 15.65209226 42870 qbee 1 42708U 98067LR 18046.83708046 .00018025 00000-0 18637-3 0 9990 2 42708 51.6355 252.8368 0001748 125.7288 234.3870 15.64814729 42836 ZA-AeroSat 1 42713U 98067LU 18046.78854677 .00014630 00000-0 16217-3 0 9992 2 42713 51.6348 254.7719 0002441 93.5961 266.5313 15.63217257 42512 LINK 1 42714U 98067LV 18046.78572541 .00032555 00000-0 28884-3 0 9999 2 42714 51.6319 250.9568 0002101 110.5534 249.5688 15.68251646 42678 UPSat 1 42716U 98067LX 18046.44416570 .00024566 00000-0 23113-3 0 9996 2 42716 051.6346 253.2134 0003910 157.4205 202.6963 15.66959533042639 SpaceCube 1 42717U 98067LY 18046.79494078 .00017712 00000-0 18394-3 0 9994 2 42717 51.6346 253.3080 0003914 154.4602 205.6587 15.64714070 41900 Hoopoe 1 42718U 98067LZ 18046.77717745 .00021464 00000-0 21169-3 0 9995 2 42718 51.6354 252.4415 0003873 153.8937 206.2254 15.65872653 41912 Challenger 1 42721U 98067MA 18046.85401988 .00038180 00000-0 31017-3 0 9993 2 42721 51.6332 249.1610 0005580 145.4902 214.6459 15.70300714 41660 NJUST-1 1 42722U 98067MB 18046.85152761 .00014294 00000-0 16247-3 0 9994 2 42722 51.6359 255.1971 0006653 136.6754 223.4765 15.62576372 41581 UNSW-EC0 1 42723U 98067MC 18046.80944180 .00023110 00000-0 22594-3 0 9993 2 42723 51.6366 252.6698 0006010 138.6358 221.5094 15.66029735 41592 DUTHsat 1 42724U 98067MD 18046.84447218 .00039243 00000-0 32890-3 0 9992 2 42724 51.6337 249.8700 0004980 145.9914 214.1403 15.69537980 41553 LO-90 1 42725U 98067ME 18046.84409525 .00017627 00000-0 18955-3 0 9990 2 42725 51.6358 254.3982 0005626 139.5110 220.6304 15.63820493 41498 nSIGHT1 1 42726U 98067MF 18046.83431859 .00007104 00000-0 94296-4 0 9997 2 42726 51.6377 258.1047 0006260 137.9448 222.2027 15.59440890 41455 QBITO 1 42728U 98067MH 18046.82774806 .00018367 00000-0 19058-3 0 9995 2 42728 51.6375 253.5678 0003398 145.5494 214.5722 15.64707420 41311 Aalto-2 1 42729U 98067MJ 18046.75798642 .00018711 00000-0 19313-3 0 9999 2 42729 51.6356 253.8248 0003364 144.8782 215.2435 15.64826893 41317 SUSat 1 42730U 98067MK 18046.79961661 .00016278 00000-0 17280-3 0 9995 2 42730 51.6352 254.0940 0003431 141.6342 218.4898 15.64228071 41300 i-INSPIRE II 1 42731U 98067ML 18046.77799195 .00024077 00000-0 23154-3 0 9998 2 42731 51.6346 252.4216 0005810 94.6979 265.4681 15.66417855 41379 PolyITAN-2-SAU 1 42732U 98067MM 18046.41990984 .00017796 00000-0 18253-3 0 9993 2 42732 51.6351 255.2928 0006072 90.6641 269.5050 15.65015604 41303 SNUSAT-1 1 42733U 98067MN 18046.86502754 .00017047 00000-0 18063-3 0 9995 2 42733 51.6353 253.7718 0006261 94.3668 265.8043 15.64222345 41364 ExAlta-1 1 42734U 98067MP 18046.84707875 .00029068 00000-0 27737-3 0 9999 2 42734 51.6333 252.1306 0007145 117.6252 242.5470 15.66487350 41333 Aoxiang-1 1 42735U 98067MQ 18046.83578427 .00014006 00000-0 15820-3 0 9994 2 42735 51.6351 255.0794 0007120 133.9247 226.2336 15.62756455 42719 BeEagleSat 1 42736U 98067MR 18046.85049509 .00016447 00000-0 17907-3 0 9990 2 42736 51.6348 254.4246 0006901 133.6320 226.5247 15.63553574 41414 Atlantis 1 42737U 98067MS 18046.57854934 .00131245 00000-0 56720-3 0 9996 2 42737 051.6246 242.6853 0004259 181.4052 178.6940 15.84015383041435 CAS-4B 1 42759U 17034B 18046.82194263 .00000250 00000-0 29034-4 0 9995 2 42759 43.0189 29.4871 0007658 60.4814 9.9207 15.09189743 37110 CAS-4A 1 42761U 17034D 18046.80933244 .00000295 00000-0 31795-4 0 9992 2 42761 43.0196 29.4037 0007992 62.5497 5.4557 15.09265747 37103 UCLSat 1 42765U 17036A 18046.62109019 .00001363 00000-0 63546-4 0 9999 2 42765 097.4179 108.3476 0013092 137.2917 222.9339 15.21509029036819 NIUSat 1 42766U 17036B 18046.56328317 .00001108 00000-0 54281-4 0 9990 2 42766 097.4182 107.8250 0017505 126.4832 233.8019 15.20116270036050 LituanicaSAT 2 1 42768U 17036D 18046.36898931 .00002313 00000-0 10757-3 0 9992 2 42768 097.4190 107.7836 0017346 129.9423 230.3340 15.20833811036042 Aalto 1 1 42775U 17036L 18046.36126851 .00001013 00000-0 49356-4 0 9999 2 42775 097.4177 107.7802 0015661 127.2670 232.9996 15.20515639035983 URSA MAIOR 1 42776U 17036M 18046.61671579 .00000991 00000-0 48280-4 0 9999 2 42776 097.4181 108.0599 0015558 126.7160 233.5508 15.20580695036025 Max Valier Sat 1 42778U 17036P 18046.61757391 .00001042 00000-0 49959-4 0 9990 2 42778 097.4202 108.2636 0014056 131.4680 228.7765 15.21032962036028 Pegasus 1 42784U 17036V 18046.38097949 .00001392 00000-0 65135-4 0 9999 2 42784 097.4183 108.0655 0013606 138.2912 221.9363 15.21340771035999 NUDATSat 1 42787U 17036Y 18046.53688515 .00001856 00000-0 84733-4 0 9994 2 42787 097.4187 108.3186 0013214 137.7986 222.4270 15.21774760035866 SUCHAI 1 1 42788U 17036Z 18046.62057604 .00001510 00000-0 69981-4 0 9999 2 42788 097.4183 108.3541 0013262 137.4514 222.7752 15.21554788036107 SKCUBE 1 42789U 17036AA 18046.61800108 .00001409 00000-0 65524-4 0 9990 2 42789 097.4181 108.3539 0013088 137.3314 222.8941 15.21542276036027 VZLUSAT 1 1 42790U 17036AB 18046.46250777 .00001996 00000-0 90847-4 0 9993 2 42790 097.4183 108.2533 0012751 138.1310 222.0903 15.21805687036001 VENTA 1 1 42791U 17036AC 18046.53860917 .00001388 00000-0 64457-4 0 9998 2 42791 097.4181 108.3053 0012681 138.0786 222.1423 15.21610751036000 Robusta 1B 1 42792U 17036AD 18046.40046893 .00001569 00000-0 72316-4 0 9998 2 42792 097.4180 108.1787 0012619 138.8910 221.3279 15.21678900036000 D-SAT 1 42794U 17036AF 18046.15642558 .00000361 00000-0 37285-4 0 9997 2 42794 97.6097 105.3149 0126384 328.8431 30.5336 14.90780877 35540 BIRD-J 1 42820U 98067MU 18046.47013976 .00014780 00000-0 16685-3 0 9991 2 42820 051.6352 257.8870 0003002 080.0349 280.0984 15.62735356034816 BIRD-G 1 42821U 98067MV 18046.81102560 .00014074 00000-0 16089-3 0 9992 2 42821 51.6350 256.4137 0003031 84.2850 275.8490 15.62457305 34821 BIRD-M 1 42822U 98067MW 18046.55025378 .00013552 00000-0 15454-3 0 9990 2 42822 051.6352 257.6744 0003064 085.5205 274.6139 15.62560361034807 BIRD-B 1 42823U 98067MX 18045.97579757 .00014489 00000-0 16462-3 0 9991 2 42823 051.6359 260.5978 0005983 097.0167 263.1508 15.62577709034711 BIRD-N 1 42824U 98067MY 18046.05168095 .00015203 00000-0 17322-3 0 9992 2 42824 051.6365 260.3634 0005890 097.7934 262.3729 15.62459480034690 TechnoSat 1 42829U 17042E 18046.80997383 .00000289 00000-0 34837-4 0 9993 2 42829 97.6067 313.6673 0012902 240.6872 119.3058 14.90767500 32252 Mayak 1 42830U 17042F 18046.84969221 .00000647 00000-0 70589-4 0 9991 2 42830 97.6075 313.7856 0013020 238.4508 121.5440 14.91112921 32252 OBJECT MZ 1 42910U 98067MZ 18046.54518323 .00011108 00000-0 13776-3 0 9994 2 42910 051.6351 259.8759 0007096 116.6032 243.5689 15.60570770028369 OBJECT NA 1 42911U 98067NA 18046.84131540 .00013518 00000-0 16323-3 0 9998 2 42911 51.6358 258.1307 0006614 113.9718 246.1968 15.61054562 28393 OBJECT NB 1 42912U 98067NB 18046.80791982 .00012858 00000-0 15776-3 0 9994 2 42912 51.6358 258.6222 0006082 124.8630 235.2936 15.60690180 28405 OBJECT NC 1 42913U 98067NC 18046.53669940 .00020542 00000-0 21632-3 0 9990 2 42913 051.6346 257.5676 0004978 136.9008 223.2377 15.64239840028399 OBJECT ND 1 42914U 98067ND 18046.82949245 .00012344 00000-0 15370-3 0 9995 2 42914 51.6363 258.7986 0006018 119.4168 240.7427 15.60346911 28390 QIKCOM-1 1 42983U 98067NF 18046.63455956 .00002279 00000-0 39975-4 0 9995 2 42983 51.6417 264.0396 0005476 109.8415 355.5196 15.55344628 17298 AO-91 1 43017U 17073E 18046.41886108 .00001078 00000-0 91017-4 0 9996 2 43017 97.7001 342.6967 0259304 308.2235 49.5885 14.77902746 13127 EcAMSat 1 43019U 98067NG 18046.86634234 .00005083 00000-0 79356-4 0 9992 2 43019 51.6386 262.8101 0005712 85.3198 274.8445 15.55715796 99651 PICSAT 1 43131U 18004W 18046.71568272 .00001461 00000-0 66478-4 0 9999 2 43131 97.5502 108.9914 0010269 155.1714 204.9929 15.22307737 5238 AO-92 1 43137U 18004AC 18046.44963420 .00001221 00000-0 55910-4 0 9992 2 43137 097.5504 108.7328 0010198 157.9137 202.2541 15.22425111005196 TianYi 2 1 43155U 18008A 18046.80215127 .00000599 00000-0 40337-4 0 9994 2 43155 97.5363 123.2882 0017526 197.3395 284.7531 15.10340159 4167 2018-008C 1 43157U 18008C 18046.74984014 .00001086 00000-0 71570-4 0 9992 2 43157 97.5433 123.2240 0015566 186.7677 288.8131 15.09510343 4154 2018-008D 1 43158U 18008D 18046.81687079 .00001151 00000-0 75622-4 0 9997 2 43158 97.5368 123.2692 0013898 190.1610 289.7371 15.09517035 4145 FMN 1 1 43192U 18015A 18046.58357219 .00001949 00000-0 87498-4 0 9996 2 43192 097.3375 178.1721 0015956 206.1248 153.9184 15.22248275002013 Shaonian Xing 1 43199U 18015H 18046.77183535 .00001436 00000-0 63371-4 0 9997 2 43199 97.3149 178.3390 0016746 220.1982 139.8023 15.23255575 2053 /EX
